RYR84K LEAM-EBCI

Flight info

Callsign RYR84K
Flight time 2h 16m
Altitude 36000
Route RISPO M143 YES DCT DISVU DCT LATEK DCT CHALA DCT BOKNO UN858 VANAD UN874 ARSAF DCT SULEX/N0333F180 N874 CMB DCT VEKIN N873 ADUTO DCT ARVOL
Aircraft B738/M-SDE2E3FGHIRWXY/LB1

Departure

Time 2026-04-25 18:47
Airport Almería Airport (LEAM)

Arrival

Time 2026-04-25 21:03
Airport Brussels South Charleroi Airport (EBCI)
Time Latitude Longitude Altitude Speed Heading
2026-04-25 18:29 36.84674 -2.37154 69 ft 0 kts 145°
2026-04-25 18:43 36.84673 -2.37153 68 ft 1 kts 145°
2026-04-25 18:43 36.84658 -2.37143 61 ft 5 kts 157°
2026-04-25 18:43 36.84605 -2.37173 64 ft 13 kts 247°
2026-04-25 18:43 36.84568 -2.37322 61 ft 23 kts 251°
2026-04-25 18:44 36.84458 -2.37461 64 ft 23 kts 252°
2026-04-25 18:44 36.84410 -2.37658 60 ft 24 kts 252°
2026-04-25 18:44 36.84359 -2.37867 63 ft 26 kts 253°
2026-04-25 18:44 36.84303 -2.38097 60 ft 29 kts 252°
2026-04-25 18:45 36.84246 -2.38329 62 ft 27 kts 252°
2026-04-25 18:45 36.84193 -2.38545 65 ft 25 kts 253°
2026-04-25 18:45 36.84143 -2.38744 60 ft 20 kts 248°
2026-04-25 18:45 36.84049 -2.38773 58 ft 15 kts 150°
2026-04-25 18:46 36.84007 -2.38658 57 ft 15 kts 99°
2026-04-25 18:46 36.84034 -2.38483 57 ft 43 kts 72°
2026-04-25 18:46 36.84191 -2.37849 62 ft 107 kts 73°
2026-04-25 18:46 36.84455 -2.36755 139 ft 150 kts 73°
2026-04-25 18:47 36.84761 -2.35471 710 ft 156 kts 76°
2026-04-25 18:47 36.85065 -2.34149 1396 ft 159 kts 74°
2026-04-25 18:47 36.85415 -2.32718 1767 ft 186 kts 72°
2026-04-25 18:47 36.85830 -2.31066 1981 ft 210 kts 72°
2026-04-25 18:48 36.86294 -2.29224 2334 ft 226 kts 72°
2026-04-25 18:48 36.86762 -2.27356 3144 ft 226 kts 72°
2026-04-25 18:48 36.87227 -2.25504 3950 ft 228 kts 72°
2026-04-25 18:48 36.87877 -2.23695 4707 ft 230 kts 52°
2026-04-25 18:49 36.89093 -2.22347 5376 ft 239 kts 32°
2026-04-25 18:49 36.90566 -2.21352 6125 ft 242 kts 29°
2026-04-25 18:49 36.92082 -2.20360 6771 ft 247 kts 30°
2026-04-25 18:49 36.93632 -2.19337 7470 ft 251 kts 29°
2026-04-25 18:50 36.95190 -2.18299 8160 ft 254 kts 29°
2026-04-25 18:50 36.96732 -2.17267 8899 ft 256 kts 30°
2026-04-25 18:50 36.98353 -2.16215 9546 ft 263 kts 22°
2026-04-25 18:50 37.00150 -2.15918 10103 ft 274 kts 353°
2026-04-25 18:51 37.02058 -2.16578 10314 ft 296 kts 342°
2026-04-25 18:51 37.02725 -2.16867 10385 ft 304 kts 342°
2026-04-25 18:51 37.06243 -2.18449 10648 ft 341 kts 341°
2026-04-25 18:51 37.08538 -2.19486 10813 ft 361 kts 341°
2026-04-25 18:52 37.10967 -2.20574 10955 ft 380 kts 341°
2026-04-25 18:52 37.13511 -2.21705 11168 ft 394 kts 341°
2026-04-25 18:52 37.16118 -2.22858 11641 ft 399 kts 341°
2026-04-25 18:52 37.17857 -2.23627 12036 ft 401 kts 341°
2026-04-25 18:53 37.20495 -2.24794 12624 ft 404 kts 341°
2026-04-25 18:53 37.23137 -2.25969 13161 ft 408 kts 341°
2026-04-25 18:53 37.25825 -2.27157 13736 ft 411 kts 341°
2026-04-25 18:53 37.28531 -2.28351 14266 ft 414 kts 342°
2026-04-25 18:54 37.34166 -2.29422 15584 ft 409 kts 360°
2026-04-25 18:54 37.37021 -2.29492 16104 ft 413 kts
2026-04-25 18:54 37.39917 -2.29575 16557 ft 418 kts 360°
2026-04-25 18:55 37.42836 -2.29685 17069 ft 422 kts 359°
2026-04-25 18:55 37.45780 -2.29820 17591 ft 424 kts 359°
2026-04-25 18:55 37.48741 -2.29969 18127 ft 427 kts 359°
2026-04-25 18:55 37.51719 -2.30126 18578 ft 430 kts 359°
2026-04-25 18:56 37.54716 -2.30285 18992 ft 433 kts 359°
2026-04-25 18:56 37.57740 -2.30445 19417 ft 436 kts 359°
2026-04-25 18:56 37.60772 -2.30604 19844 ft 438 kts 359°
2026-04-25 18:56 37.63818 -2.30766 20258 ft 441 kts 359°
2026-04-25 18:57 37.66899 -2.30948 20675 ft 443 kts 358°
2026-04-25 18:57 37.69989 -2.31142 21072 ft 446 kts 359°
2026-04-25 18:57 37.73110 -2.31340 21389 ft 451 kts 359°
2026-04-25 18:57 37.75188 -2.31473 21628 ft 453 kts 359°
2026-04-25 18:58 37.79410 -2.31740 22151 ft 455 kts 359°
2026-04-25 18:58 37.85778 -2.32139 22856 ft 461 kts 359°
2026-04-25 18:58 37.88982 -2.32339 23202 ft 463 kts 359°
2026-04-25 18:59 37.95452 -2.32743 23816 ft 468 kts 359°
2026-04-25 18:59 38.01991 -2.33152 24382 ft 472 kts 359°
2026-04-25 19:00 38.08574 -2.33565 24952 ft 475 kts 359°
2026-04-25 19:00 38.11879 -2.33773 25219 ft 477 kts 359°
2026-04-25 19:01 38.18539 -2.34191 25735 ft 480 kts 359°
2026-04-25 19:01 38.21877 -2.34402 26002 ft 481 kts 360°
2026-04-25 19:01 38.25179 -2.34610 26275 ft 481 kts 359°
2026-04-25 19:01 38.28517 -2.34821 26639 ft 480 kts 360°
2026-04-25 19:02 38.35168 -2.34988 27303 ft 476 kts
2026-04-25 19:02 38.38427 -2.34330 27635 ft 473 kts 15°
2026-04-25 19:02 38.41559 -2.33075 28000 ft 471 kts 20°
2026-04-25 19:03 38.46717 -2.30725 28582 ft 470 kts 22°
2026-04-25 19:03 38.50781 -2.28862 29136 ft 468 kts 21°
2026-04-25 19:03 38.53854 -2.27467 29388 ft 470 kts 21°
2026-04-25 19:04 38.60036 -2.24688 30057 ft 470 kts 21°
2026-04-25 19:04 38.63115 -2.23314 30424 ft 468 kts 21°
2026-04-25 19:05 38.69256 -2.20577 31004 ft 467 kts 20°
2026-04-25 19:05 38.75355 -2.17862 31523 ft 452 kts 20°
2026-04-25 19:05 38.78279 -2.16560 31476 ft 439 kts 21°
2026-04-25 19:06 38.81155 -2.15271 31492 ft 439 kts 21°
2026-04-25 19:06 38.87000 -2.12644 31626 ft 451 kts 21°
2026-04-25 19:06 38.89957 -2.11314 32001 ft 449 kts 21°
2026-04-25 19:07 38.95794 -2.08691 33044 ft 439 kts 21°
2026-04-25 19:07 38.98665 -2.07400 33584 ft 434 kts 21°
2026-04-25 19:08 39.04312 -2.04857 34517 ft 426 kts 21°
2026-04-25 19:08 39.07099 -2.03600 34871 ft 424 kts 21°
2026-04-25 19:09 39.15410 -1.99843 35715 ft 422 kts 20°
2026-04-25 19:09 39.17243 -1.99012 35878 ft 422 kts 20°
2026-04-25 19:09 39.23751 -1.96062 36121 ft 429 kts 20°
2026-04-25 19:10 39.26581 -1.94777 36127 ft 434 kts 20°
2026-04-25 19:10 39.32337 -1.92161 36135 ft 443 kts 20°
2026-04-25 19:11 39.38210 -1.89485 36138 ft 452 kts 20°
2026-04-25 19:11 39.44189 -1.86758 36136 ft 458 kts 20°
2026-04-25 19:12 39.50229 -1.83999 36131 ft 462 kts 20°
2026-04-25 19:12 39.56269 -1.81234 36282 ft 464 kts 20°
2026-04-25 19:13 39.62389 -1.78429 36394 ft 467 kts 19°
2026-04-25 19:13 39.65451 -1.77024 36533 ft 467 kts 20°
2026-04-25 19:13 39.68509 -1.75620 36705 ft 465 kts 20°
2026-04-25 19:13 39.71559 -1.74217 36853 ft 465 kts 20°
2026-04-25 19:14 39.74602 -1.72817 36959 ft 465 kts 20°
2026-04-25 19:14 39.80703 -1.70003 37239 ft 463 kts 20°
2026-04-25 19:14 39.83726 -1.68607 37502 ft 460 kts 20°
2026-04-25 19:15 39.86730 -1.67219 37767 ft 457 kts 20°
2026-04-25 19:15 39.89718 -1.65836 38035 ft 453 kts 20°
2026-04-25 19:15 39.92683 -1.64463 38140 ft 453 kts 20°
2026-04-25 19:16 39.98649 -1.61696 38153 ft 457 kts 20°
2026-04-25 19:16 40.04651 -1.58908 38162 ft 458 kts 20°
2026-04-25 19:17 40.10651 -1.56115 38160 ft 458 kts 20°
2026-04-25 19:17 40.16645 -1.53320 38155 ft 457 kts 20°
2026-04-25 19:18 40.22646 -1.50516 38154 ft 458 kts 20°
2026-04-25 19:18 40.28654 -1.47704 38157 ft 459 kts 20°
2026-04-25 19:19 40.34674 -1.44880 38153 ft 460 kts 20°
2026-04-25 19:19 40.40703 -1.42047 38170 ft 460 kts 20°
2026-04-25 19:20 40.46733 -1.39208 38151 ft 461 kts 20°
2026-04-25 19:20 40.52781 -1.36355 38156 ft 462 kts 20°
2026-04-25 19:21 40.58834 -1.33494 38142 ft 463 kts 20°
2026-04-25 19:21 40.67881 -1.29208 38143 ft 463 kts 20°
2026-04-25 19:22 40.73986 -1.26330 38141 ft 463 kts 18°
2026-04-25 19:23 40.83351 -1.23553 38134 ft 462 kts 11°
2026-04-25 19:23 40.92814 -1.21102 38126 ft 463 kts 11°
2026-04-25 19:24 40.99177 -1.19373 38142 ft 464 kts 12°
2026-04-25 19:25 41.11833 -1.15863 38121 ft 466 kts 12°
2026-04-25 19:25 41.18147 -1.14106 38129 ft 467 kts 11°
2026-04-25 19:26 41.24506 -1.12335 38118 ft 467 kts 12°
2026-04-25 19:26 41.30865 -1.10561 38114 ft 466 kts 12°
2026-04-25 19:27 41.35110 -1.09375 38109 ft 466 kts 11°
2026-04-25 19:27 41.43568 -1.07006 38101 ft 467 kts 11°
2026-04-25 19:28 41.49925 -1.05222 38077 ft 467 kts 11°
2026-04-25 19:28 41.56282 -1.03434 38076 ft 467 kts 11°
2026-04-25 19:29 41.62638 -1.01643 38071 ft 466 kts 11°
2026-04-25 19:29 41.68981 -0.99852 38076 ft 466 kts 11°
2026-04-25 19:30 41.75317 -0.98059 38078 ft 465 kts 11°
2026-04-25 19:30 41.81650 -0.96263 38089 ft 465 kts 12°
2026-04-25 19:31 41.87983 -0.94464 38083 ft 465 kts 12°
2026-04-25 19:31 41.94266 -0.92675 38098 ft 465 kts 12°
2026-04-25 19:32 42.00601 -0.90868 38104 ft 465 kts 12°
2026-04-25 19:32 42.04839 -0.89657 38107 ft 466 kts 12°
2026-04-25 19:33 42.13283 -0.87240 38110 ft 466 kts 12°
2026-04-25 19:33 42.19622 -0.85420 38127 ft 466 kts 11°
2026-04-25 19:34 42.25985 -0.83590 38119 ft 468 kts 12°
2026-04-25 19:34 42.32356 -0.81754 38127 ft 468 kts 12°
2026-04-25 19:35 42.38732 -0.79913 38130 ft 469 kts 12°
2026-04-25 19:35 42.45118 -0.78065 38139 ft 470 kts 11°
2026-04-25 19:36 42.51518 -0.76209 38148 ft 471 kts 11°
2026-04-25 19:36 42.57927 -0.74347 38154 ft 471 kts 11°
2026-04-25 19:37 42.64341 -0.72479 38164 ft 472 kts 11°
2026-04-25 19:37 42.70772 -0.70602 38171 ft 473 kts 11°
2026-04-25 19:38 42.77202 -0.68717 38176 ft 472 kts 11°
2026-04-25 19:38 42.82535 -0.67124 38177 ft 472 kts 11°
2026-04-25 19:39 42.88943 -0.65195 38180 ft 471 kts 11°
2026-04-25 19:39 42.95344 -0.63265 38187 ft 471 kts 11°
2026-04-25 19:40 43.01738 -0.61338 38189 ft 470 kts 11°
2026-04-25 19:40 43.08134 -0.59407 38202 ft 471 kts 11°
2026-04-25 19:41 43.14535 -0.57470 38190 ft 472 kts 11°
2026-04-25 19:41 43.19912 -0.55840 38191 ft 472 kts 11°
2026-04-25 19:42 43.27371 -0.53574 38188 ft 473 kts 11°
2026-04-25 19:42 43.33804 -0.51615 38188 ft 474 kts 11°
2026-04-25 19:43 43.40244 -0.49650 38188 ft 474 kts 11°
2026-04-25 19:43 43.46681 -0.47680 38193 ft 473 kts 10°
2026-04-25 19:44 43.53091 -0.45715 38182 ft 471 kts 10°
2026-04-25 19:44 43.59493 -0.43749 38191 ft 471 kts 10°
2026-04-25 19:45 43.65887 -0.41780 38203 ft 470 kts 10°
2026-04-25 19:45 43.72269 -0.39811 38188 ft 470 kts 10°
2026-04-25 19:46 43.78647 -0.37839 38185 ft 469 kts 10°
2026-04-25 19:46 43.85011 -0.35867 38197 ft 468 kts 10°
2026-04-25 19:47 43.91369 -0.33892 38182 ft 468 kts 10°
2026-04-25 19:47 43.97719 -0.31916 38186 ft 467 kts 10°
2026-04-25 19:48 44.04058 -0.29938 38204 ft 467 kts 10°
2026-04-25 19:48 44.10397 -0.27957 38184 ft 466 kts 10°
2026-04-25 19:49 44.15653 -0.26310 38190 ft 466 kts 10°
2026-04-25 19:49 44.23047 -0.23989 38191 ft 465 kts 10°
2026-04-25 19:50 44.32516 -0.21008 38184 ft 465 kts 10°
2026-04-25 19:51 44.38818 -0.19018 38188 ft 464 kts 10°
2026-04-25 19:51 44.45082 -0.17036 38193 ft 464 kts 11°
2026-04-25 19:52 44.51378 -0.15039 38183 ft 464 kts 11°
2026-04-25 19:52 44.57666 -0.13041 38178 ft 463 kts 11°
2026-04-25 19:53 44.63951 -0.11039 38182 ft 463 kts 11°
2026-04-25 19:53 44.70236 -0.09032 38177 ft 463 kts 11°
2026-04-25 19:54 44.76519 -0.07022 38176 ft 463 kts 11°
2026-04-25 19:54 44.82802 -0.05007 38174 ft 463 kts 11°
2026-04-25 19:55 44.89081 -0.02989 38182 ft 463 kts 11°
2026-04-25 19:55 44.95355 -0.00969 38183 ft 463 kts 11°
2026-04-25 19:56 45.01627 0.01056 38183 ft 463 kts 11°
2026-04-25 19:56 45.07927 0.03094 38177 ft 464 kts 11°
2026-04-25 19:57 45.14214 0.05133 38179 ft 464 kts 11°
2026-04-25 19:57 45.20510 0.07180 38186 ft 464 kts 11°
2026-04-25 19:58 45.26799 0.09228 38175 ft 464 kts 11°
2026-04-25 19:58 45.33091 0.11283 38179 ft 464 kts 11°
2026-04-25 19:59 45.39383 0.13342 38185 ft 464 kts 11°
2026-04-25 19:59 45.45673 0.15405 38179 ft 464 kts 11°
2026-04-25 20:00 45.51964 0.17473 38178 ft 464 kts 11°
2026-04-25 20:00 45.58246 0.19543 38194 ft 463 kts 11°
2026-04-25 20:01 45.67675 0.22659 38176 ft 464 kts 11°
2026-04-25 20:01 45.73961 0.24742 38158 ft 464 kts 11°
2026-04-25 20:02 45.80247 0.26830 38158 ft 464 kts 11°
2026-04-25 20:02 45.86530 0.28922 38160 ft 463 kts 11°
2026-04-25 20:03 45.92811 0.31018 38165 ft 463 kts 11°
2026-04-25 20:03 45.99087 0.33118 38180 ft 463 kts 11°
2026-04-25 20:04 46.05365 0.35222 38165 ft 463 kts 11°
2026-04-25 20:04 46.11641 0.37332 38163 ft 463 kts 11°
2026-04-25 20:05 46.17908 0.39443 38173 ft 462 kts 11°
2026-04-25 20:05 46.24177 0.41559 38167 ft 463 kts 11°
2026-04-25 20:06 46.30465 0.43687 38162 ft 465 kts 11°
2026-04-25 20:06 46.36762 0.45823 38159 ft 465 kts 11°
2026-04-25 20:07 46.42989 0.48048 38158 ft 465 kts 15°
2026-04-25 20:07 46.49081 0.51204 38153 ft 465 kts 18°
2026-04-25 20:08 46.55125 0.54588 38157 ft 465 kts 18°
2026-04-25 20:08 46.61174 0.57923 38162 ft 465 kts 18°
2026-04-25 20:09 46.67234 0.61201 38158 ft 465 kts 18°
2026-04-25 20:09 46.73303 0.64467 38150 ft 465 kts 18°
2026-04-25 20:10 46.79370 0.67736 38161 ft 465 kts 18°
2026-04-25 20:10 46.85441 0.71017 38145 ft 465 kts 18°
2026-04-25 20:11 46.91507 0.74306 38151 ft 465 kts 18°
2026-04-25 20:11 46.97575 0.77604 38165 ft 465 kts 18°
2026-04-25 20:12 47.03643 0.80910 38149 ft 465 kts 18°
2026-04-25 20:12 47.07702 0.83126 38146 ft 466 kts 18°
2026-04-25 20:13 47.15803 0.87559 38158 ft 467 kts 18°
2026-04-25 20:13 47.21907 0.90909 38157 ft 469 kts 19°
2026-04-25 20:14 47.28020 0.94272 38153 ft 469 kts 19°
2026-04-25 20:14 47.34137 0.97646 38151 ft 470 kts 19°
2026-04-25 20:15 47.40260 1.01032 38163 ft 470 kts 19°
2026-04-25 20:15 47.46373 1.04421 38150 ft 469 kts 19°
2026-04-25 20:16 47.52470 1.07809 38153 ft 468 kts 19°
2026-04-25 20:16 47.58563 1.11203 38152 ft 468 kts 19°
2026-04-25 20:17 47.64649 1.14601 38157 ft 468 kts 19°
2026-04-25 20:17 47.70740 1.18011 38152 ft 467 kts 19°
2026-04-25 20:18 47.76822 1.21425 38153 ft 467 kts 19°
2026-04-25 20:18 47.82864 1.24824 38163 ft 467 kts 19°
2026-04-25 20:19 47.88942 1.28253 38145 ft 468 kts 19°
2026-04-25 20:19 47.95069 1.31717 38158 ft 468 kts 19°
2026-04-25 20:20 48.01120 1.35147 38159 ft 469 kts 19°
2026-04-25 20:20 48.07215 1.38612 38158 ft 469 kts 19°
2026-04-25 20:21 48.13321 1.42091 38162 ft 469 kts 19°
2026-04-25 20:21 48.19420 1.45575 38161 ft 469 kts 19°
2026-04-25 20:22 48.23502 1.47912 38172 ft 469 kts 19°
2026-04-25 20:22 48.31617 1.52570 38165 ft 469 kts 19°
2026-04-25 20:23 48.36728 1.55511 38166 ft 469 kts 19°
2026-04-25 20:23 48.42821 1.59027 38182 ft 469 kts 19°
2026-04-25 20:24 48.48910 1.62548 38174 ft 469 kts 19°
2026-04-25 20:24 48.54996 1.66077 38177 ft 468 kts 19°
2026-04-25 20:25 48.61077 1.69613 38176 ft 468 kts 19°
2026-04-25 20:25 48.67112 1.73130 38197 ft 468 kts 19°
2026-04-25 20:26 48.73228 1.76705 38187 ft 469 kts 19°
2026-04-25 20:26 48.79312 1.80269 38192 ft 469 kts 19°
2026-04-25 20:27 48.85359 1.83821 38198 ft 469 kts 19°
2026-04-25 20:27 48.91446 1.87407 38202 ft 470 kts 19°
2026-04-25 20:28 48.97542 1.91007 38183 ft 470 kts 19°
2026-04-25 20:28 49.03637 1.94616 38195 ft 470 kts 19°
2026-04-25 20:29 49.09737 1.98237 38191 ft 470 kts 19°
2026-04-25 20:29 49.15775 2.01834 37888 ft 456 kts 19°
2026-04-25 20:30 49.18707 2.03584 37590 ft 450 kts 19°
2026-04-25 20:30 49.21626 2.05326 37336 ft 453 kts 19°
2026-04-25 20:30 49.24586 2.07093 37110 ft 459 kts 19°
2026-04-25 20:30 49.27566 2.08875 36853 ft 461 kts 19°
2026-04-25 20:31 49.30549 2.10664 36602 ft 459 kts 19°
2026-04-25 20:31 49.33514 2.12475 36344 ft 459 kts 21°
2026-04-25 20:31 49.36342 2.14771 36080 ft 461 kts 31°
2026-04-25 20:31 49.38919 2.17705 35837 ft 462 kts 36°
2026-04-25 20:32 49.41431 2.20776 35589 ft 461 kts 37°
2026-04-25 20:32 49.43928 2.23863 35342 ft 461 kts 36°
2026-04-25 20:32 49.46444 2.26967 35100 ft 467 kts 36°
2026-04-25 20:32 49.49001 2.30099 34868 ft 473 kts 36°
2026-04-25 20:33 49.51585 2.33247 34646 ft 473 kts 36°
2026-04-25 20:33 49.54156 2.36371 34402 ft 470 kts 36°
2026-04-25 20:33 49.56721 2.39483 34154 ft 468 kts 36°
2026-04-25 20:33 49.58414 2.41537 33965 ft 467 kts 36°
2026-04-25 20:34 49.61836 2.45691 33613 ft 472 kts 36°
2026-04-25 20:34 49.64427 2.48841 33350 ft 477 kts 36°
2026-04-25 20:34 49.67046 2.52030 33080 ft 481 kts 36°
2026-04-25 20:34 49.69671 2.55234 32820 ft 481 kts 36°
2026-04-25 20:35 49.72301 2.58449 32572 ft 482 kts 36°
2026-04-25 20:35 49.74924 2.61663 32312 ft 481 kts 36°
2026-04-25 20:35 49.77546 2.64878 32055 ft 481 kts 36°
2026-04-25 20:35 49.80164 2.68093 31799 ft 480 kts 36°
2026-04-25 20:36 49.82782 2.71312 31547 ft 480 kts 36°
2026-04-25 20:36 49.85403 2.74539 31286 ft 482 kts 36°
2026-04-25 20:36 49.88029 2.77777 31042 ft 484 kts 36°
2026-04-25 20:36 49.90662 2.81028 30750 ft 481 kts 36°
2026-04-25 20:37 49.93264 2.84248 30013 ft 477 kts 36°
2026-04-25 20:37 49.95819 2.87411 29363 ft 474 kts 36°
2026-04-25 20:37 49.98397 2.90606 28365 ft 476 kts 36°
2026-04-25 20:37 50.01023 2.93764 27229 ft 480 kts 33°
2026-04-25 20:38 50.03808 2.96663 26087 ft 483 kts 30°
2026-04-25 20:38 50.06674 2.99417 25113 ft 484 kts 29°
2026-04-25 20:38 50.09541 3.02132 24435 ft 479 kts 29°
2026-04-25 20:38 50.12353 3.04836 23834 ft 472 kts 30°
2026-04-25 20:39 50.15103 3.07496 23541 ft 456 kts 27°
2026-04-25 20:39 50.18012 3.09309 23255 ft 451 kts 10°
2026-04-25 20:39 50.21146 3.09715 23006 ft 455 kts 353°
2026-04-25 20:39 50.23214 3.09264 22848 ft 454 kts 346°
2026-04-25 20:40 50.27255 3.07517 22499 ft 447 kts 340°
2026-04-25 20:40 50.30200 3.06017 22222 ft 444 kts 339°
2026-04-25 20:40 50.33135 3.04483 21752 ft 443 kts 339°
2026-04-25 20:40 50.36039 3.02961 21293 ft 439 kts 339°
2026-04-25 20:41 50.38804 3.01026 20824 ft 432 kts 325°
2026-04-25 20:41 50.41041 2.97960 20395 ft 426 kts 308°
2026-04-25 20:41 50.42546 2.94001 20042 ft 427 kts 291°
2026-04-25 20:41 50.43211 2.89465 19681 ft 430 kts 274°
2026-04-25 20:42 50.42966 2.84821 19322 ft 429 kts 257°
2026-04-25 20:42 50.41829 2.80521 18979 ft 428 kts 239°
2026-04-25 20:42 50.39906 2.76978 18709 ft 429 kts 222°
2026-04-25 20:42 50.37379 2.74510 18404 ft 431 kts 204°
2026-04-25 20:43 50.34477 2.73346 18083 ft 434 kts 186°
2026-04-25 20:43 50.31467 2.73603 17761 ft 435 kts 169°
2026-04-25 20:43 50.28646 2.75263 17485 ft 435 kts 151°
2026-04-25 20:43 50.26275 2.78160 17221 ft 434 kts 133°
2026-04-25 20:44 50.24575 2.82010 16962 ft 432 kts 115°
2026-04-25 20:44 50.23689 2.86462 16708 ft 429 kts 97°
2026-04-25 20:44 50.23686 2.91074 16459 ft 425 kts 80°
2026-04-25 20:44 50.24535 2.95465 16277 ft 421 kts 64°
2026-04-25 20:45 50.26064 2.99334 16220 ft 418 kts 48°
2026-04-25 20:45 50.28121 3.02514 16228 ft 416 kts 41°
2026-04-25 20:45 50.30248 3.05578 16216 ft 417 kts 44°
2026-04-25 20:45 50.32019 3.09177 16045 ft 420 kts 59°
2026-04-25 20:46 50.33131 3.13388 15745 ft 418 kts 73°
2026-04-25 20:46 50.33667 3.17845 15464 ft 417 kts 81°
2026-04-25 20:46 50.34091 3.22329 15170 ft 415 kts 80°
2026-04-25 20:46 50.34535 3.26786 14875 ft 414 kts 79°
2026-04-25 20:47 50.35072 3.31195 14593 ft 412 kts 76°
2026-04-25 20:47 50.35692 3.35566 14306 ft 410 kts 76°
2026-04-25 20:47 50.36334 3.39902 14021 ft 408 kts 75°
2026-04-25 20:47 50.36976 3.44227 13701 ft 406 kts 75°
2026-04-25 20:48 50.37606 3.48529 13381 ft 405 kts 76°
2026-04-25 20:48 50.38223 3.52817 13071 ft 403 kts 76°
2026-04-25 20:48 50.38829 3.57092 12752 ft 401 kts 76°
2026-04-25 20:48 50.39426 3.61342 12444 ft 399 kts 76°
2026-04-25 20:49 50.40017 3.65577 12262 ft 397 kts 76°
2026-04-25 20:49 50.40605 3.69806 12219 ft 396 kts 76°
2026-04-25 20:49 50.41188 3.74022 12214 ft 394 kts 76°
2026-04-25 20:49 50.41750 3.78099 12063 ft 371 kts 76°
2026-04-25 20:50 50.42275 3.81934 11927 ft 348 kts 76°
2026-04-25 20:50 50.42771 3.85557 11529 ft 335 kts 76°
2026-04-25 20:50 50.43254 3.89074 11057 ft 335 kts 76°
2026-04-25 20:50 50.43745 3.92651 10583 ft 335 kts 76°
2026-04-25 20:51 50.44232 3.96218 10166 ft 334 kts 76°
2026-04-25 20:51 50.44716 3.99769 9696 ft 332 kts 76°
2026-04-25 20:51 50.45196 4.03306 9231 ft 331 kts 76°
2026-04-25 20:51 50.45732 4.06801 8773 ft 329 kts 73°
2026-04-25 20:52 50.46392 4.10220 8321 ft 326 kts 70°
2026-04-25 20:52 50.46857 4.12513 8034 ft 325 kts 70°
2026-04-25 20:52 50.47764 4.16941 7418 ft 316 kts 70°
2026-04-25 20:52 50.48428 4.20171 6973 ft 306 kts 70°
2026-04-25 20:53 50.49072 4.23301 6530 ft 297 kts 70°
2026-04-25 20:53 50.49700 4.26352 6065 ft 290 kts 70°
2026-04-25 20:53 50.50313 4.29338 5609 ft 284 kts 70°
2026-04-25 20:53 50.50910 4.32256 5153 ft 278 kts 70°
2026-04-25 20:54 50.51500 4.35123 4687 ft 273 kts 69°
2026-04-25 20:54 50.52212 4.37889 4247 ft 275 kts 65°
2026-04-25 20:54 50.52977 4.40628 4032 ft 269 kts 64°
2026-04-25 20:54 50.53711 4.43253 4000 ft 258 kts 65°
2026-04-25 20:55 50.54406 4.45834 3997 ft 255 kts 66°
2026-04-25 20:55 50.55076 4.48408 4005 ft 255 kts 66°
2026-04-25 20:55 50.55747 4.51001 4010 ft 257 kts 66°
2026-04-25 20:55 50.56419 4.53607 4002 ft 257 kts 66°
2026-04-25 20:56 50.57093 4.56218 4002 ft 258 kts 66°
2026-04-25 20:56 50.57780 4.58816 3998 ft 258 kts 65°
2026-04-25 20:56 50.58472 4.61414 3999 ft 257 kts 65°
2026-04-25 20:56 50.59163 4.64004 4002 ft 257 kts 65°
2026-04-25 20:57 50.59852 4.66591 3996 ft 256 kts 65°
2026-04-25 20:57 50.60456 4.69227 3988 ft 258 kts 78°
2026-04-25 20:57 50.60279 4.72037 3863 ft 268 kts 110°
2026-04-25 20:57 50.59097 4.74354 3477 ft 279 kts 144°
2026-04-25 20:58 50.57295 4.75272 3094 ft 276 kts 180°
2026-04-25 20:58 50.55539 4.74424 3002 ft 259 kts 217°
2026-04-25 20:58 50.54429 4.72350 3027 ft 241 kts 239°
2026-04-25 20:58 50.53575 4.70187 2983 ft 226 kts 241°
2026-04-25 20:59 50.52798 4.68031 3015 ft 226 kts 241°
2026-04-25 20:59 50.52042 4.65929 2997 ft 214 kts 244°
2026-04-25 20:59 50.51428 4.63951 2936 ft 194 kts 247°
2026-04-25 20:59 50.50887 4.62097 2711 ft 181 kts 247°
2026-04-25 21:00 50.50381 4.60360 2503 ft 167 kts 246°
2026-04-25 21:00 50.50226 4.59828 2414 ft 164 kts 246°
2026-04-25 21:00 50.48972 4.55529 1813 ft 161 kts 247°
2026-04-25 21:01 50.48507 4.53935 1596 ft 160 kts 248°
2026-04-25 21:01 50.48053 4.52381 1386 ft 159 kts 248°
2026-04-25 21:01 50.47600 4.50816 1166 ft 155 kts 248°
2026-04-25 21:01 50.47157 4.49312 956 ft 149 kts 248°
2026-04-25 21:02 50.46734 4.47855 766 ft 145 kts 247°
2026-04-25 21:02 50.46321 4.46436 625 ft 136 kts 247°
2026-04-25 21:02 50.45974 4.45236 616 ft 101 kts 245°
2026-04-25 21:02 50.45743 4.44448 624 ft 58 kts 245°
2026-04-25 21:03 50.45643 4.44102 622 ft 25 kts 246°
2026-04-25 21:03 50.45693 4.43998 623 ft 7 kts 43°
2026-04-25 21:03 50.45718 4.44042 623 ft 5 kts 50°
2026-04-25 21:03 50.45741 4.44087 622 ft 5 kts 51°
2026-04-25 21:04 50.45764 4.44133 616 ft 5 kts 53°
2026-04-25 21:04 50.45786 4.44178 623 ft 5 kts 49°
2026-04-25 21:04 50.45807 4.44221 620 ft 5 kts 53°
2026-04-25 21:04 50.45830 4.44267 618 ft 6 kts 53°
2026-04-25 21:05 50.45864 4.44340 620 ft 11 kts 53°
2026-04-25 21:05 50.45919 4.44455 616 ft 15 kts 59°
2026-04-25 21:05 50.45973 4.44624 617 ft 19 kts 64°
2026-04-25 21:05 50.46028 4.44817 621 ft 19 kts 68°
2026-04-25 21:06 50.46085 4.45003 621 ft 19 kts 66°
2026-04-25 21:06 50.46137 4.45184 615 ft 18 kts 64°
2026-04-25 21:06 50.46188 4.45359 618 ft 17 kts 65°
2026-04-25 21:06 50.46204 4.45416 620 ft 17 kts 65°
2026-04-25 21:07 50.46289 4.45704 619 ft 19 kts 67°
2026-04-25 21:07 50.46349 4.45910 615 ft 23 kts 65°
2026-04-25 21:07 50.46426 4.46175 615 ft 29 kts 66°
2026-04-25 21:07 50.46507 4.46455 616 ft 27 kts 66°
2026-04-25 21:08 50.46558 4.46631 617 ft 26 kts 65°
2026-04-25 21:08 50.46652 4.46789 619 ft 8 kts 339°
2026-04-25 21:08 50.46689 4.46773 612 ft 8 kts 358°
2026-04-25 21:08 50.46731 4.46825 617 ft 8 kts 62°
2026-04-25 21:09 50.46776 4.46979 623 ft 8 kts 67°
2026-04-25 21:09 50.46797 4.47053 616 ft 7 kts 66°
2026-04-25 21:09 50.46821 4.47122 617 ft 5 kts 31°
2026-04-25 21:10 50.46853 4.47108 612 ft 4 kts 336°
2026-04-25 21:10 50.46867 4.47099 625 ft 2 kts 336°
2026-04-25 21:10 50.46872 4.47096 623 ft 0 kts 337°